Location: Newark
(38.1089°N, 103.8675°W)
Time: 23:02:00
(UTC+00:00)

Envisat - Pass Details

Date: 16 December 2019
Orbit: 764 x 766 km, 98.1° (Epoch: 21 January)

Event Time Altitude Azimuth Distance (km) Brightness Sun altitude
Rises 02:09:24 0° 209° (SSW) 3,219 6.7 -29.2°
Reaches altitude 10° 02:12:36 10° 231° (SW) 2,298 6.1 -29.8°
Maximum altitude 02:15:39 16° 268° (W) 1,922 5.8 -30.4°
Drops below altitude 10° 02:18:42 10° 306° (NW) 2,308 6.0 -31.0°
Sets 02:21:57 0° 327° (NNW) 3,239 6.6 -31.6°
